TimeMST,TemperatureF,Dew PointF,Humidity,Sea Level PressureIn,VisibilityMPH,Wind Direction,Wind SpeedMPH,Gust SpeedMPH,PrecipitationIn,Events,Conditions,WindDirDegrees,DateUTC
12:53 AM,3.9,-4.0,70,30.45,10.0,SW,9.2,-,N/A,,Clear,230,2013-01-03 07:53:00
1:53 AM,3.0,-5.1,69,30.48,10.0,WSW,9.2,-,N/A,,Clear,250,2013-01-03 08:53:00
2:53 AM,3.0,-5.1,69,30.49,10.0,WSW,8.1,-,N/A,,Clear,250,2013-01-03 09:53:00
3:53 AM,7.0,-4.0,61,30.47,10.0,WSW,13.8,-,N/A,,Clear,240,2013-01-03 10:53:00
4:53 AM,3.9,-5.1,66,30.51,10.0,West,11.5,-,N/A,,Clear,270,2013-01-03 11:53:00
5:53 AM,10.0,-2.9,56,30.49,10.0,SW,15.0,-,N/A,,Clear,230,2013-01-03 12:53:00
6:53 AM,12.9,-2.0,51,30.49,10.0,SW,17.3,-,N/A,,Clear,220,2013-01-03 13:53:00
7:53 AM,14.0,-2.0,49,30.50,10.0,SW,17.3,26.5,N/A,,Clear,220,2013-01-03 14:53:00
8:53 AM,14.0,-0.9,52,30.53,10.0,SW,16.1,23.0,N/A,,Clear,220,2013-01-03 15:53:00
9:53 AM,18.0,1.0,48,30.50,10.0,SSW,26.5,34.5,N/A,,Clear,210,2013-01-03 16:53:00
10:53 AM,19.0,3.0,50,30.48,10.0,SW,27.6,34.5,N/A,,Clear,220,2013-01-03 17:53:00
11:53 AM,21.0,5.0,50,30.42,10.0,SSW,25.3,33.4,N/A,,Clear,210,2013-01-03 18:53:00
12:53 PM,23.0,6.1,48,30.40,10.0,SSW,27.6,39.1,N/A,,Clear,210,2013-01-03 19:53:00
1:53 PM,24.1,7.0,48,30.39,10.0,SSW,29.9,34.5,N/A,,Clear,210,2013-01-03 20:53:00
2:53 PM,25.0,8.1,49,30.39,10.0,SSW,25.3,32.2,N/A,,Clear,210,2013-01-03 21:53:00
3:53 PM,24.1,7.0,48,30.37,10.0,SSW,25.3,33.4,N/A,,Clear,210,2013-01-03 22:53:00
4:53 PM,21.9,5.0,48,30.40,10.0,SSW,21.9,-,N/A,,Clear,210,2013-01-03 23:53:00
5:53 PM,21.9,3.9,46,30.39,10.0,SSW,24.2,32.2,N/A,,Clear,210,2013-01-04 00:53:00
6:53 PM,19.9,3.0,48,30.38,10.0,SW,20.7,27.6,N/A,,Clear,220,2013-01-04 01:53:00
7:53 PM,19.9,1.9,46,30.38,10.0,SW,20.7,27.6,N/A,,Clear,220,2013-01-04 02:53:00
8:53 PM,19.9,1.0,44,30.38,10.0,SW,20.7,26.5,N/A,,Clear,220,2013-01-04 03:53:00
9:53 PM,19.0,-0.0,43,30.36,10.0,SW,18.4,25.3,N/A,,Clear,220,2013-01-04 04:53:00
10:53 PM,19.0,-0.0,43,30.37,10.0,SW,21.9,26.5,N/A,,Clear,230,2013-01-04 05:53:00
11:53 PM,17.1,-0.0,47,30.36,10.0,SW,19.6,26.5,N/A,,Clear,230,2013-01-04 06:53:00